Location: Drignac
(45.1667°N, 2.0333°E)
Time: 08:52:34
(UTC+00:00)

STARLINK-1206 - Pass Details

Date: 29 March 2020
Orbit: 548 x 551 km, 53.0° (Epoch: 02 June)

Event Time Altitude Azimuth Distance (km) Brightness Sun altitude
Rises 19:44:45 0° 273° (W) 2,718 8.6 -15.9°
Reaches altitude 10° 19:47:11 10° 284° (WNW) 1,825 7.6 -16.3°
Maximum altitude 19:50:54 31° 348° (NNW) 977 5.2 -16.9°
Enters shadow 19:54:18 12° 49° (NE) 1,711 5.9 -17.4°
